Temperature
19 19 20 20 17 15 17 19 19 20 21 21 22 21 18 18 19 19 18 18 17 16 15 14 14 14 14 13 13 13 13 13 12 12 12 12 12 11 11 11 11 11 11 11 12 12 12 12 13
19 19 20 19 15 16 17 18 19 20 22 22 22 21 19 19 19 19 18 17 17 16 15 15 14 14 14 13 13 13 12 12 12 12 12 11 11 11 11 11 11 12 12 12 12 12 12 12 13
19 20 20 16 16 16 18 18 19 21 22 23 21 21 20 20 20 20 19 18 17 16 15 15 14 14 14 13 13 12 12 12 12 12 11 11 11 12 12 12 12 12 12 12 12 12 12 12 12
20 20 19 16 18 18 18 18 19 20 22 22 21 19 20 20 20 20 19 18 17 16 16 15 14 14 14 13 13 13 12 12 12 11 11 11 11 12 12 12 12 12 12 12 12 12 12 12 12
19 19 16 16 18 19 18 19 21 20 21 22 21 19 19 20 20 20 20 19 18 17 16 15 15 14 14 13 13 13 12 12 12 12 11 11 11 12 12 12 12 12 12 12 12 12 12 11 11
19 16 15 16 18 19 19 21 21 20 21 21 21 19 19 20 20 20 19 19 18 17 16 15 14 14 14 13 13 12 12 12 12 12 11 11 11 11 11 11 11 11 11 11 11 11 11 11 11
18 15 16 17 18 19 20 22 21 20 20 21 21 18 18 19 19 19 19 18 17 17 16 15 15 14 13 13 13 12 12 12 12 12 11 11 11 11 11 11 11 11 11 11 11 10 10 10 10
19 15 17 17 18 19 21 22 22 22 21 22 22 19 18 19 18 18 17 17 17 16 16 15 15 14 14 13 13 12 12 12 12 11 11 11 11 11 11 10 10 10 10 10 10 10 10 10 10
19 15 16 17 18 19 20 21 22 22 22 22 21 22 22 20 18 17 16 16 16 16 15 15 15 14 14 13 13 12 12 12 11 11 11 11 11 11 10 10 10 10 10 10 10 10 10 9 9
18 15 17 19 19 19 20 20 21 21 21 21 21 21 21 20 18 18 17 17 16 16 16 15 15 15 14 13 13 12 12 12 11 11 11 11 11 10 10 10 10 10 10 10 9 9 9 9 9
17 16 17 19 20 20 20 20 21 20 19 20 21 21 20 19 18 18 18 18 18 17 16 16 15 15 14 14 13 12 12 12 11 11 11 11 10 10 10 10 10 10 9 9 9 9 9 9 9
17 17 19 19 20 20 20 20 20 20 21 22 21 21 20 19 19 19 18 18 17 17 17 16 15 15 14 14 13 13 12 12 11 11 11 10 10 10 10 10 10 9 9 9 9 9 9 9 9
17 17 19 20 20 20 20 19 19 20 21 21 21 20 20 20 20 19 19 18 17 17 16 16 15 15 14 14 13 13 12 12 11 11 11 10 10 10 10 10 9 9 9 9 9 9 9 9 9
17 18 18 19 19 20 19 19 18 20 21 21 21 20 20 20 20 19 18 18 17 17 17 16 16 15 14 14 13 13 12 12 11 11 11 10 10 10 10 10 9 9 9 9 9 9 9 9 9
18 17 17 18 18 19 18 17 17 20 20 20 20 20 20 20 20 20 19 19 18 18 17 16 16 15 14 14 13 13 12 12 11 11 11 10 10 10 10 9 9 9 9 9 9 9 9 9 9
17 16 16 17 17 18 17 16 16 20 20 20 20 20 20 20 20 20 20 19 19 18 17 17 16 15 14 14 13 13 12 12 11 11 10 10 10 10 9 9 9 9 9 9 9 9 9 9 9
15 14 15 16 17 16 16 15 16 20 19 19 20 20 20 20 20 20 20 20 19 19 18 17 16 16 15 14 13 13 12 12 11 11 10 10 10 10 9 9 9 9 9 9 9 9 9 9 9
13 14 15 15 16 16 15 15 16 19 18 18 19 20 20 20 20 21 20 20 20 19 18 18 17 16 15 14 13 12 12 12 11 11 11 10 10 10 10 9 9 9 9 9 9 9 9 9 9
15 15 15 15 16 16 15 15 16 17 17 17 18 19 20 20 21 21 20 20 20 19 18 18 17 16 15 14 13 12 12 12 11 11 11 10 10 10 10 10 10 9 9 9 9 9 9 9 9
15 14 15 15 16 16 15 15 15 15 16 18 18 19 19 20 20 21 20 20 20 19 19 18 17 16 15 15 14 13 13 12 11 11 10 10 10 10 10 10 10 10 9 9 9 9 9 9 9
14 14 14 15 15 15 15 14 15 15 17 18 18 19 19 20 20 20 20 20 19 19 19 18 17 17 16 15 14 13 12 11 11 11 11 10 10 10 10 10 10 10 9 9 9 9 9 9 9
14 15 15 15 14 13 14 13 13 14 15 16 17 18 19 19 20 20 20 20 19 19 18 18 17 17 16 15 14 13 12 12 12 11 11 10 10 10 10 10 10 10 9 9 9 9 9 9 8
14 15 15 15 14 13 13 13 13 14 15 15 16 18 19 19 19 19 19 19 19 18 18 17 17 16 15 14 14 13 13 12 12 11 11 10 10 10 10 10 10 10 9 9 9 9 9 9 8
15 14 13 12 12 12 12 12 12 13 15 15 15 17 18 19 19 19 19 18 18 18 17 17 16 16 15 14 14 13 13 12 11 11 11 10 10 10 10 10 10 9 9 9 9 9 9 8 8
14 13 12 12 11 11 12 12 13 14 15 15 15 17 18 19 19 19 18 18 18 17 17 16 16 15 14 14 13 13 12 12 12 11 11 10 10 10 10 10 10 9 9 9 9 9 8 8 8
13 13 12 12 11 11 12 12 13 14 15 16 17 18 18 18 18 18 18 18 17 17 16 16 15 15 14 13 13 12 12 12 11 11 11 10 10 10 10 10 10 9 9 9 9 8 8 8 8
12 13 13 12 11 11 11 12 13 14 14 14 15 16 17 18 18 18 18 17 17 17 16 15 15 14 14 13 13 12 12 11 11 11 10 10 10 10 10 10 9 9 9 9 8 8 8 8 7
13 12 11 11 11 11 11 12 13 15 14 14 13 15 17 18 18 18 17 17 17 16 16 15 14 14 13 13 12 12 11 11 11 10 10 10 10 10 9 9 9 9 9 8 8 8 8 7 7
12 12 12 11 10 11 11 12 13 14 15 14 13 16 17 18 18 18 17 17 16 16 15 15 14 13 13 12 12 11 11 11 10 10 10 10 9 9 9 9 9 9 9 8 8 8 7 7 7
12 12 12 12 10 10 10 12 14 13 14 14 14 16 17 18 18 18 17 17 16 16 16 15 14 14 13 12 12 11 11 10 10 10 10 9 9 9 9 9 9 8 8 8 8 7 7 6 6
Wind_Speed
8 6 3 4 5 5 1 3 5 3 2 1 5 11 10 6 4 4 3 12 14 15 19 21 20 19 18 17 17 16 16 15 14 14 14 13 13 13 13 13 14 14 14 14 14 14 14 14 13
4 3 5 5 5 2 3 2 5 5 6 6 6 8 7 3 3 8 7 12 18 19 19 20 21 20 18 18 18 16 16 15 14 14 13 13 13 13 13 13 13 13 13 13 13 13 13 13 13
3 2 4 4 3 5 5 5 7 5 5 4 5 5 8 7 6 9 10 17 17 17 19 21 22 20 19 18 18 17 16 15 14 14 13 13 12 12 12 12 12 12 12 12 12 12 12 12 11
4 5 5 4 2 5 8 8 7 6 2 4 6 6 3 3 8 9 15 18 16 14 19 22 22 21 20 19 18 17 16 15 14 14 13 13 12 11 11 11 11 11 11 11 10 10 10 10 10
4 4 4 1 3 3 5 7 7 7 5 4 7 7 1 5 4 13 19 18 18 13 19 22 22 21 20 19 18 18 17 16 15 14 13 12 12 11 10 10 10 9 9 9 9 9 9 8 9
4 4 3 2 4 3 4 5 5 5 3 4 7 7 1 1 10 15 16 17 17 16 19 21 22 22 21 20 19 18 17 16 15 14 13 12 12 11 10 9 8 8 8 7 7 7 7 6 6
4 4 3 4 3 4 5 4 7 6 4 5 8 7 3 4 9 12 13 13 14 17 17 17 20 21 21 20 19 19 18 17 15 14 13 12 11 10 10 8 7 7 6 6 5 5 4 4 5
5 4 1 3 4 5 3 3 5 8 5 4 8 10 8 9 9 9 10 11 12 12 12 14 17 19 19 19 20 19 18 17 16 15 14 13 11 10 9 8 7 6 4 3 3 2 2 3 4
4 3 2 3 4 4 2 2 1 3 4 3 3 8 8 12 12 11 9 8 11 12 11 12 14 16 17 18 18 19 19 17 16 15 14 13 10 9 8 8 6 5 4 2 0 1 3 4 5
4 4 5 4 3 3 1 1 2 2 2 1 2 2 6 13 15 15 14 15 15 15 14 12 13 15 16 16 16 17 16 16 16 15 14 12 11 10 8 8 7 6 4 3 3 3 4 4 5
5 7 5 4 3 2 1 1 1 4 4 6 7 7 10 12 13 15 16 17 17 17 16 15 14 16 16 13 14 14 14 15 15 15 15 13 11 9 8 8 7 5 4 4 4 4 4 4 4
4 5 5 5 3 2 3 2 1 5 8 7 9 12 13 14 16 17 17 15 13 15 17 16 15 15 16 15 13 13 12 12 12 15 15 13 9 8 8 7 7 6 5 4 4 3 3 4 4
5 5 5 6 5 4 4 4 4 7 8 5 5 11 15 16 16 15 14 13 12 16 17 17 16 15 15 13 12 13 12 13 14 15 15 14 10 7 8 7 6 6 5 4 2 1 2 2 3
5 5 5 6 6 4 5 5 3 9 6 3 6 12 15 16 16 13 11 12 14 16 18 17 18 16 15 13 10 11 14 15 15 14 16 16 12 10 8 5 5 5 5 5 3 1 0 1 2
3 2 5 5 6 5 3 8 9 12 5 6 8 11 13 15 14 14 15 16 17 16 17 18 18 17 16 14 13 13 14 15 13 14 16 16 14 12 9 5 4 5 6 5 3 1 2 2 2
1 1 5 6 5 5 6 11 12 9 6 9 10 10 11 13 14 15 16 15 15 15 16 18 17 17 17 14 12 12 14 14 14 15 15 16 15 13 10 5 4 6 6 4 2 1 1 1 2
1 4 6 6 5 6 7 10 11 7 7 10 10 10 11 12 12 14 15 16 16 17 18 18 16 18 17 14 12 11 13 13 14 15 14 15 15 14 11 7 6 7 5 3 2 1 1 0 2
7 6 5 7 5 6 8 12 12 8 7 10 10 10 10 11 14 13 13 14 15 16 17 18 16 16 15 11 8 8 8 8 11 13 14 15 14 14 12 8 7 7 4 3 2 2 1 0 1
7 6 7 7 5 5 10 13 15 11 7 9 9 9 10 11 12 9 10 11 11 12 14 16 16 15 14 11 10 10 9 8 7 9 14 16 15 15 12 7 6 6 4 4 4 2 1 0 1
8 7 8 6 3 5 8 12 11 10 8 9 10 10 10 9 7 6 7 8 12 14 15 15 16 16 16 13 11 8 7 6 7 7 11 15 15 15 12 9 6 6 4 4 4 3 2 0 1
11 11 10 6 4 3 4 9 8 7 6 6 7 8 8 9 9 8 7 8 9 12 14 15 15 15 15 13 8 6 5 4 4 6 7 10 14 14 13 11 9 7 6 5 5 5 5 3 1
13 10 9 7 3 5 2 6 8 7 7 8 8 7 7 7 8 7 7 8 10 11 11 12 13 13 14 14 13 14 10 9 9 7 7 7 11 12 13 12 10 8 6 6 5 5 4 4 2
8 7 8 6 5 5 4 5 9 6 8 10 10 9 8 7 8 8 9 9 9 8 9 10 11 12 12 14 15 15 10 8 6 6 8 8 7 10 12 12 10 8 6 6 6 5 5 4 4
7 5 3 2 2 7 9 7 8 7 10 9 8 8 8 7 6 6 6 6 5 6 7 9 11 11 12 13 14 15 13 10 9 9 9 8 5 6 9 10 10 9 7 7 6 6 6 5 4
8 7 2 2 4 8 6 7 10 11 11 11 11 10 9 7 6 6 7 7 7 8 8 9 11 11 11 13 13 13 14 14 14 12 11 9 7 6 9 8 8 8 8 8 7 6 6 6 5
11 12 9 8 7 5 4 9 10 10 8 8 9 8 8 7 6 7 8 8 8 8 9 9 11 11 11 12 12 11 12 11 10 11 10 11 9 8 8 9 9 9 9 8 7 5 5 5 6
11 10 8 6 3 3 6 7 8 3 5 7 7 7 8 8 8 7 7 7 8 8 9 10 11 10 10 11 11 10 11 11 10 10 9 9 7 7 8 9 9 8 8 8 7 5 6 5 5
11 11 6 6 7 7 6 7 7 8 10 9 9 10 10 8 7 7 7 7 7 7 7 8 9 10 9 10 10 9 10 11 10 9 10 9 8 8 8 9 8 8 7 7 6 5 5 5 5
8 9 8 8 6 7 6 8 9 13 13 13 13 11 11 10 9 8 7 6 6 6 6 7 8 8 8 9 9 9 9 9 9 9 10 9 8 9 9 9 9 8 8 7 6 6 6 6 5
9 11 10 10 8 7 5 8 7 11 11 11 11 10 9 9 8 7 7 5 5 6 6 7 7 8 8 8 8 8 8 8 9 9 9 9 9 9 9 8 8 8 7 7 7 7 7 7 6
Wind_Direction
331 345 76 58 55 52 248 242 173 148 104 113 101 103 110 115 145 159 149 145 144 150 159 155 153 149 145 140 136 131 125 120 116 112 107 103 99 96 94 91 87 83 79 77 76 75 74 73 72
343 19 61 60 87 94 276 237 151 161 163 134 98 99 98 107 142 132 133 155 149 152 156 155 153 150 147 144 140 137 132 127 123 118 113 108 105 100 97 93 90 87 83 81 78 76 75 73 73
340 60 79 74 128 182 195 205 166 170 164 118 89 90 137 160 164 166 166 152 147 152 155 156 155 153 151 149 146 142 138 134 130 125 119 113 109 105 101 97 93 89 86 83 80 78 75 73 71
50 45 57 74 247 224 185 202 177 144 130 102 110 94 129 175 179 173 149 148 147 152 155 159 158 157 155 153 149 147 144 140 136 131 126 120 114 110 106 102 99 95 90 86 81 77 74 71 69
62 71 58 353 259 240 194 193 170 147 159 140 121 124 138 333 149 142 148 151 152 155 158 162 162 161 159 156 153 151 148 144 141 136 132 126 121 117 113 110 106 101 95 89 83 79 74 70 64
57 71 93 239 248 238 223 192 154 146 169 145 120 126 181 64 138 150 154 155 156 157 161 165 166 163 161 159 158 156 153 150 146 143 140 135 130 127 123 119 113 105 98 91 85 78 72 64 56
112 107 189 221 225 238 231 177 142 146 161 175 138 128 178 194 172 155 152 151 154 158 160 165 166 165 165 164 163 161 159 155 153 151 148 143 140 138 136 132 126 116 106 97 88 78 64 50 35
132 112 256 240 211 229 232 154 146 146 177 168 132 147 191 204 177 142 138 146 154 159 163 164 164 165 166 166 167 166 164 162 160 158 154 152 152 150 148 148 145 140 131 119 97 68 39 13 353
105 93 232 239 208 228 243 106 100 150 129 99 131 180 200 157 146 135 137 148 161 168 170 166 163 165 165 166 170 169 169 169 166 162 160 160 160 160 164 169 169 166 164 166 191 329 337 335 325
114 168 223 228 208 205 253 133 178 111 116 98 44 35 119 143 155 160 166 170 175 178 179 175 170 168 167 171 172 171 171 172 170 168 168 168 169 173 179 190 193 194 203 231 266 297 315 328 325
169 194 220 243 232 203 216 257 197 149 211 206 194 178 152 161 171 178 181 181 183 180 180 181 178 174 172 172 170 171 172 173 174 176 176 176 177 184 194 200 207 214 228 251 275 300 318 320 311
202 231 214 224 215 184 206 218 249 198 220 217 196 173 168 176 185 189 190 188 181 179 185 183 181 178 177 174 175 175 174 177 180 183 183 179 177 184 192 197 207 212 220 234 254 283 305 316 316
226 245 240 231 219 209 207 224 240 247 246 249 185 169 181 188 195 200 196 188 179 184 187 185 183 181 180 176 178 180 180 182 185 187 188 184 179 182 190 200 205 208 208 209 217 267 322 339 344
221 229 248 242 232 230 227 259 246 254 246 235 189 187 197 199 202 201 198 195 193 190 188 185 185 183 179 180 180 181 184 184 185 187 189 186 184 183 184 189 191 197 200 197 183 176 93 9 7
208 243 289 255 219 221 201 276 244 247 252 240 228 212 209 213 209 206 205 202 200 195 189 185 186 182 181 182 181 181 183 182 183 188 188 186 186 184 180 177 183 193 191 179 150 118 76 35 10
114 177 253 265 212 194 171 255 260 256 239 246 241 233 226 225 219 217 211 207 201 193 189 187 185 183 183 182 180 180 181 180 184 186 186 187 187 185 176 171 182 185 173 157 133 112 76 12 349
202 210 230 268 221 186 191 244 262 259 225 243 246 240 236 237 235 227 218 210 201 195 189 186 183 183 184 180 177 176 178 180 182 182 184 188 188 185 175 175 181 173 156 148 146 120 128 321 315
204 208 224 232 239 190 216 245 265 271 238 243 247 246 243 241 241 232 220 211 202 195 188 185 183 182 179 173 168 169 173 179 180 182 186 186 186 183 175 173 175 165 149 153 145 136 106 164 294
186 196 228 241 236 201 234 250 261 263 254 249 250 248 245 246 250 240 218 202 189 185 184 184 181 178 174 176 177 178 183 183 182 184 187 186 185 182 176 170 167 162 165 170 162 146 126 20 16
218 230 243 267 261 222 251 262 264 260 247 236 237 242 242 249 257 237 208 186 183 184 185 184 184 180 181 184 182 179 171 176 182 181 185 187 185 182 180 171 170 167 164 162 162 149 142 131 82
221 219 225 237 309 320 304 295 277 272 255 251 244 239 240 234 232 226 205 193 183 185 186 187 185 182 183 174 160 142 132 134 164 183 188 189 185 182 178 177 171 171 168 175 178 165 160 175 200
228 218 208 214 230 268 234 279 276 265 274 262 255 247 238 231 222 215 203 194 191 194 186 184 183 181 179 171 172 171 178 185 190 183 185 184 184 182 180 178 174 172 171 177 182 173 167 160 184
207 196 197 207 207 257 245 241 273 265 253 256 251 243 234 228 214 210 205 199 194 185 181 181 177 180 178 178 179 181 185 184 167 165 174 182 186 185 182 179 175 176 178 180 178 172 176 173 175
162 114 95 65 142 249 225 211 268 231 223 234 241 234 225 219 213 211 203 182 179 173 173 174 176 182 180 180 181 185 183 173 167 175 182 186 187 189 188 182 180 180 180 183 185 183 183 185 183
157 141 156 221 229 243 208 209 247 236 224 215 217 219 217 211 201 197 188 183 182 178 178 177 178 183 182 182 185 188 185 182 184 185 187 187 188 196 198 188 185 185 186 185 183 184 192 189 191
187 172 181 194 212 252 213 225 248 247 231 221 212 207 204 205 206 204 201 194 190 188 184 182 185 187 184 186 189 189 186 188 192 189 188 193 198 199 192 189 189 188 186 187 184 188 196 193 200
176 194 171 153 187 230 247 262 291 255 215 208 204 198 203 207 206 206 203 197 193 190 191 188 188 189 188 189 188 189 189 190 191 188 186 192 193 190 185 188 189 191 190 188 183 195 201 197 205
173 161 143 166 182 224 258 245 231 220 216 214 211 210 214 212 208 207 201 199 197 195 192 187 187 190 190 189 190 192 192 192 187 184 188 190 188 183 181 188 191 192 191 188 187 196 202 200 213
155 169 167 170 183 185 233 254 220 210 208 208 212 210 207 205 206 206 205 200 193 187 184 187 191 191 190 191 191 189 189 186 182 186 191 190 187 184 186 189 190 192 193 191 192 202 202 211 223
173 180 168 184 206 191 199 259 251 221 214 201 205 208 208 206 203 200 197 186 185 190 191 192 193 194 194 189 186 188 184 180 184 189 189 185 185 186 187 184 187 192 194 193 196 206 208 214 225
Height
1523 1523 1523 1524 1527 1537 1537 1530 1524 1523 1521 1521 1521 1522 1526 1530 1533 1539 1536 1535 1537 1539 1541 1544 1546 1547 1548 1549 1550 1550 1551 1551 1551 1551 1551 1551 1551 1550 1550 1550 1550 1550 1550 1549 1549 1548 1548 1548 1548
1523 1523 1525 1525 1534 1545 1538 1527 1524 1520 1519 1520 1522 1523 1526 1529 1530 1532 1533 1535 1537 1539 1541 1543 1545 1547 1548 1549 1550 1550 1551 1551 1551 1551 1551 1551 1551 1551 1551 1551 1551 1550 1550 1550 1550 1550 1549 1549 1549
1523 1523 1525 1527 1535 1540 1533 1525 1521 1518 1519 1519 1522 1524 1526 1528 1529 1531 1532 1534 1536 1538 1540 1542 1544 1546 1547 1548 1549 1550 1551 1551 1551 1551 1551 1552 1552 1552 1552 1551 1551 1551 1551 1551 1551 1551 1550 1550 1550
1524 1524 1525 1531 1532 1527 1524 1521 1518 1518 1519 1520 1522 1525 1527 1529 1529 1530 1532 1533 1536 1538 1540 1542 1544 1545 1547 1548 1549 1550 1550 1551 1551 1552 1552 1552 1552 1552 1552 1552 1552 1552 1552 1552 1552 1552 1552 1551 1551
1523 1524 1529 1534 1529 1522 1518 1517 1517 1517 1518 1520 1521 1524 1526 1528 1529 1530 1531 1533 1535 1537 1539 1541 1543 1545 1546 1547 1549 1549 1550 1551 1551 1552 1552 1552 1552 1552 1552 1553 1553 1553 1553 1553 1553 1553 1552 1552 1552
1524 1525 1536 1537 1529 1520 1517 1516 1516 1516 1518 1519 1521 1524 1526 1527 1528 1530 1531 1533 1535 1536 1538 1540 1542 1544 1546 1547 1548 1549 1550 1551 1551 1552 1552 1552 1552 1553 1553 1553 1553 1553 1553 1553 1553 1553 1553 1553 1553
1524 1528 1533 1530 1527 1522 1516 1514 1514 1516 1517 1519 1519 1523 1525 1526 1528 1529 1531 1533 1535 1536 1538 1539 1541 1543 1545 1546 1547 1548 1549 1550 1551 1552 1552 1552 1553 1553 1553 1554 1554 1554 1554 1554 1554 1554 1553 1553 1553
1521 1526 1528 1528 1525 1521 1514 1513 1513 1514 1516 1518 1519 1520 1522 1524 1527 1529 1531 1532 1534 1535 1537 1538 1540 1542 1543 1545 1547 1548 1549 1550 1551 1551 1552 1552 1553 1553 1554 1554 1554 1554 1554 1554 1554 1554 1554 1554 1553
1520 1528 1531 1525 1522 1517 1513 1513 1513 1514 1515 1516 1517 1518 1519 1522 1524 1527 1529 1531 1532 1534 1535 1537 1539 1540 1542 1544 1545 1547 1548 1549 1550 1551 1551 1552 1553 1553 1553 1554 1554 1554 1554 1554 1554 1554 1554 1554 1553
1519 1528 1523 1517 1515 1514 1513 1512 1513 1513 1514 1515 1515 1516 1517 1519 1521 1523 1524 1526 1528 1530 1532 1535 1537 1539 1540 1542 1544 1545 1547 1548 1549 1550 1551 1551 1552 1553 1553 1553 1554 1554 1554 1554 1554 1554 1554 1553 1553
1516 1519 1516 1514 1513 1512 1512 1512 1512 1512 1513 1512 1513 1514 1516 1517 1519 1520 1521 1522 1524 1527 1529 1532 1534 1536 1538 1540 1542 1543 1545 1546 1548 1549 1550 1551 1551 1552 1552 1553 1553 1554 1554 1554 1554 1553 1553 1553 1552
1514 1512 1512 1511 1511 1511 1511 1511 1511 1510 1510 1510 1511 1512 1513 1514 1516 1517 1518 1520 1522 1524 1527 1529 1531 1534 1535 1537 1539 1541 1543 1544 1546 1547 1548 1549 1550 1551 1552 1552 1553 1553 1553 1553 1553 1553 1552 1552 1551
1512 1510 1510 1509 1509 1509 1510 1509 1509 1507 1508 1508 1509 1510 1510 1511 1512 1514 1516 1518 1519 1521 1523 1526 1528 1530 1533 1535 1537 1539 1540 1542 1544 1546 1547 1548 1549 1550 1551 1552 1552 1552 1552 1552 1552 1552 1551 1551 1550
1508 1508 1507 1507 1507 1507 1508 1507 1507 1503 1505 1505 1506 1506 1507 1508 1509 1511 1513 1514 1516 1517 1520 1522 1525 1527 1529 1531 1534 1536 1538 1540 1542 1544 1545 1546 1548 1549 1549 1550 1551 1551 1551 1551 1551 1551 1550 1549 1549
1506 1507 1507 1505 1505 1505 1507 1507 1503 1500 1501 1502 1502 1503 1504 1504 1506 1506 1507 1509 1511 1513 1516 1518 1521 1523 1526 1528 1531 1533 1536 1538 1540 1542 1543 1545 1546 1547 1548 1549 1549 1549 1550 1550 1550 1549 1549 1548 1547
1505 1509 1512 1504 1502 1503 1509 1510 1498 1497 1498 1497 1498 1499 1499 1500 1501 1502 1503 1505 1507 1509 1512 1514 1517 1519 1522 1525 1527 1530 1533 1535 1537 1539 1541 1543 1544 1545 1546 1547 1547 1548 1548 1548 1548 1548 1547 1546 1545
1509 1514 1512 1506 1500 1501 1505 1505 1494 1493 1493 1493 1493 1493 1494 1495 1496 1497 1499 1500 1502 1504 1507 1510 1512 1515 1518 1521 1524 1527 1530 1532 1535 1537 1539 1540 1542 1543 1544 1545 1545 1546 1546 1546 1546 1546 1545 1544 1543
1512 1512 1509 1507 1499 1500 1502 1500 1491 1489 1490 1488 1488 1488 1489 1489 1489 1491 1493 1495 1497 1500 1502 1505 1508 1511 1515 1518 1521 1524 1526 1529 1531 1533 1536 1537 1539 1540 1541 1542 1543 1543 1544 1544 1544 1543 1543 1542 1541
1502 1504 1505 1501 1496 1499 1499 1496 1489 1485 1485 1484 1483 1483 1483 1483 1484 1485 1487 1489 1492 1494 1497 1500 1503 1506 1510 1513 1515 1518 1521 1524 1527 1530 1532 1534 1536 1537 1538 1539 1540 1541 1541 1542 1542 1541 1541 1540 1539
1500 1503 1503 1499 1494 1496 1497 1493 1486 1482 1481 1479 1478 1478 1477 1478 1479 1480 1481 1483 1486 1489 1492 1495 1498 1501 1504 1507 1510 1514 1517 1520 1523 1526 1528 1531 1533 1534 1535 1537 1537 1538 1539 1539 1539 1539 1538 1537 1537
1496 1499 1500 1499 1495 1494 1496 1495 1487 1479 1476 1475 1474 1473 1473 1473 1474 1475 1477 1478 1481 1484 1487 1490 1493 1497 1500 1503 1507 1511 1514 1517 1519 1521 1524 1526 1529 1531 1532 1533 1534 1535 1536 1536 1536 1536 1536 1535 1534
1493 1489 1493 1496 1501 1505 1500 1507 1490 1480 1475 1471 1469 1469 1468 1469 1470 1471 1472 1474 1477 1480 1483 1486 1489 1492 1495 1498 1501 1504 1506 1509 1511 1515 1519 1522 1525 1527 1528 1530 1531 1532 1533 1533 1533 1533 1533 1533 1532
1485 1484 1489 1492 1499 1504 1501 1505 1491 1479 1476 1469 1465 1464 1464 1465 1466 1467 1469 1471 1473 1476 1479 1482 1485 1488 1491 1493 1496 1499 1502 1505 1509 1513 1516 1518 1521 1523 1525 1526 1527 1528 1529 1530 1530 1530 1530 1529 1529
1480 1486 1491 1497 1502 1507 1498 1503 1491 1479 1469 1464 1461 1460 1461 1462 1463 1464 1466 1468 1470 1473 1475 1478 1481 1483 1486 1489 1491 1494 1497 1501 1504 1507 1511 1514 1516 1518 1520 1522 1523 1524 1525 1526 1526 1527 1526 1526 1525
1478 1491 1503 1505 1509 1504 1492 1494 1482 1464 1458 1456 1456 1456 1458 1459 1460 1461 1463 1464 1467 1469 1472 1474 1476 1479 1481 1484 1486 1490 1493 1497 1500 1503 1506 1509 1511 1513 1515 1518 1519 1520 1521 1522 1523 1523 1523 1522 1522
1473 1479 1494 1502 1504 1499 1489 1488 1469 1454 1451 1451 1452 1453 1455 1456 1457 1459 1460 1461 1463 1466 1468 1470 1472 1474 1477 1479 1482 1485 1489 1492 1495 1499 1501 1504 1506 1509 1512 1514 1515 1516 1517 1518 1518 1518 1518 1518 1517
1469 1474 1476 1488 1492 1495 1488 1476 1462 1451 1450 1450 1450 1451 1452 1453 1454 1456 1457 1458 1460 1462 1464 1466 1468 1470 1473 1475 1478 1481 1484 1487 1491 1494 1497 1500 1502 1505 1507 1509 1511 1512 1513 1514 1514 1514 1514 1514 1513
1456 1465 1478 1485 1493 1495 1485 1477 1465 1452 1450 1449 1449 1448 1448 1450 1451 1453 1454 1455 1457 1459 1461 1462 1464 1466 1468 1471 1474 1477 1480 1483 1486 1490 1492 1495 1498 1500 1503 1504 1506 1507 1508 1509 1509 1509 1509 1509 1508
1457 1462 1466 1476 1481 1487 1487 1472 1446 1442 1440 1442 1442 1443 1444 1446 1448 1450 1451 1453 1455 1456 1458 1459 1461 1462 1465 1467 1470 1473 1476 1479 1482 1485 1488 1491 1493 1496 1498 1500 1501 1502 1503 1504 1504 1504 1504 1503 1503
1444 1449 1457 1467 1474 1474 1477 1463 1433 1433 1433 1435 1437 1439 1441 1443 1445 1447 1449 1450 1452 1453 1455 1456 1457 1459 1461 1463 1466 1469 1472 1475 1477 1480 1483 1486 1489 1491 1493 1495 1496 1497 1498 1498 1499 1499 1498 1498 1497